Regional Weather Roundup
Issued by NWS San Diego, CA

Home | Current Version | Previous Version | Text Only | Print | Product List | Glossary On
Versions: 1 2 3 4 5 6 7 8 9 10 11 12 13 14 15 16 17 18 19 20 21 22 23 24 25 26 27 28 29 30 31 32 33 34 35 36 37 38 39 40 41 42 43 44 45 46 47 48 49 50
000
ASUS46 KSGX 140111
RWRSGX

SAN DIEGO HOURLY WEATHER ROUNDUP
NATIONAL WEATHER SERVICE SAN DIEGO CA
500 PM PST SAT FEB 13 2016

NOTE: "FAIR" INDICATES FEW OR NO CLOUDS BELOW 12,000 FEET WITH NO
SIGNIFICANT WEATHER AND/OR OBSTRUCTIONS TO VISIBILITY.

CAZ042-043-060-061-PZZ750-775-140200-

GREATER SAN DIEGO AREA

CITY           SKY/WX    TMP DP  RH WIND       PRES   REMARKS
LINDBERGH FLD  PTCLDY    64  54  69 NW6       30.04S
POINT LOMA       N/A     58  53  84 NW22        N/A
NATIONAL CITY    N/A     65  57  74 CALM      30.04R
CHULA VISTA      N/A     66  58  75 W5        29.96R
IMPERIAL BEACH CLEAR     64  55  72 W9        30.04S
BROWN FIELD    CLEAR     62  54  74 NW6       30.03R
MIRAMAR MCAS   MOCLDY    67  53  61 NW7       30.03S
MONTGOMERY FLD PTCLDY    66  53  63 NW7       30.03S

$$

NORTH SAN DIEGO COUNTY

CITY           SKY/WX    TMP DP  RH WIND       PRES   REMARKS
CAMP PENDLETON PTCLDY    63  49  60 SW6       30.02S
OCEANSIDE AP   PTCLDY    60  53  77 SW8       30.03R
OCEANSIDE HBR    N/A     60  56  88 W3        30.05F
VISTA            N/A     68  50  52 W1        30.01S
CARLSBAD       PTCLDY    61  54  77 W6        30.03R
DEL MAR          N/A     60  56  86 CALM      30.06F
FALLBROOK        N/A     66  52  59 SW5       30.02R
ESCONDIDO        N/A     71  43  36 W3        30.03R
SAN MARCOS       N/A     67  50  54 CALM      30.01R
POWAY            N/A     73  50  44 CALM      30.05R

$$

EAST SAN DIEGO COUNTY

CITY           SKY/WX    TMP DP  RH WIND       PRES   REMARKS
RAMONA         PTCLDY    67  46  47 W6        30.05R
SANTEE LAKES     N/A     71  49  45 W3        30.01S
LA MESA          N/A     71  49  46 CALM      29.97R
JAMUL            N/A     70  52  52 CALM      30.03R
DESCANSO N       N/A     67  44  43 W3        29.92R
MT. LAGUNA OBS   N/A     59  16  18 CALM      29.76R
CAMPO            N/A     71  40  32 SW3       30.04R

$$

ORANGE COUNTY AND THE LOS ANGELES BASIN

CITY           SKY/WX    TMP DP  RH WIND       PRES   REMARKS
JOHN WAYNE AP  PTCLDY    62  50  64 SW3       30.03S HAZE
LAGUNA BEACH     N/A     62  56  81 S3        29.99S
LAKE FOREST FR   N/A     70  47  44 W2        29.91S
HUNTINGTON BCH   N/A     61  57  87 W2        30.05F
LOS ALAMITOS   FAIR      63  56  80 S3        30.02F
FULLERTON      CLEAR     68  52  56 CALM      30.02S
LONG BEACH     CLEAR     67  50  54 NW7       30.02F
L.A. AP        PTCLDY    57  52  83 W8        30.03F
L.A. DOWNTOWN  CLEAR     63  52  67 VRB3      30.03S HAZE

$$

THE INLAND EMPIRE

CITY           SKY/WX    TMP DP  RH WIND       PRES   REMARKS
CORONA         CLEAR     74  41  30 W8        30.02
CHINO          PTCLDY    71  45  39 SW7       30.03S
ONTARIO        PTCLDY    74  43  32 W8        30.03R
SAN BERNARDINO CLEAR     73  39  29 SW9       30.03R
RIVERSIDE AP   CLEAR     74  38  27 W9        30.03R
MORENO VALLEY    N/A     77  48  36 NW5       28.13S
MARCH ARB      CLEAR     73  40  31 NW8       30.04R
HORSETHIEF CYN   N/A     74  37  26 NW3       30.06R
PERRIS           N/A     76  41  28 W5        30.04S
HEMET EAST       N/A     78  19  11 CALM      29.93S
FRENCH VALLEY  FAIR      75  45  33 S5        30.04R
TEMECULA         N/A     76  47  35 CALM      29.96R

$$

SAN BERNARDINO AND RIVERSIDE COUNTY MOUNTAINS

CITY           SKY/WX    TMP DP  RH WIND       PRES   REMARKS
BIG BEAR AP    CLEAR     52  18  25 SE3       30.28S
PINE COVE        N/A     56  26  31 CALM      30.05R

$$

SOUTHERN DESERT INCLUDING THE COACHELLA VALLEY

CITY           SKY/WX    TMP DP  RH WIND       PRES   REMARKS
PALM SPRINGS   CLEAR     83  25  12 CALM      29.99S
THOUSAND PALMS   N/A     86  26  11 E2        29.96R
PALM DESERT      N/A     84  32  15 CALM        N/A
THERMAL        PTCLDY    80  27  14 CALM      29.94S
BLYTHE         CLEAR     81  31  16 NE5       29.97F
IMPERIAL AP    PTCLDY    84  26  12 NW3       29.95R
EL CENTRO NAS  PTCLDY    83  24  11 SE3       29.98R
YUMA AZ        CLEAR     81  40  23 W5        29.95
MEXICALI       CLEAR     84  19   9 NW5       29.96R

$$

UPPER DESERT

CITY           SKY/WX    TMP DP  RH WIND       PRES   REMARKS
VICTORVILLE AP PTCLDY    72  21  15 N6        30.15R
HESPERIA         N/A     70  26  19 CALM      30.24R
APPLE VALLEY     N/A     72  18  13 N2        30.12R
PALMDALE       CLEAR     71  29  21 CALM      30.14S
LANCASTER      FAIR      71  33  24 W5        30.13S
EDWARDS AFB    PTCLDY    74  22  14 CALM      30.10S
DAGGETT        CLEAR     76  23  14 W3        30.09S
29 PALMS N     PTCLDY    75  16  10 N9        30.14R
NEEDLES        CLEAR     79  22  12 N12       30.02R

$$

REGIONAL REPORTS

CITY           SKY/WX    TMP DP  RH WIND       PRES   REMARKS
SANTA BARBARA  CLEAR     60  55  83 SE3       30.02S
SANDBERG       CLEAR     61  25  25 N18G30    30.22S
LAS VEGAS NV   FAIR      73  22  14 CALM      30.07R
PHOENIX AZ     PTCLDY    82  26  13 W10       29.95S
TIJUANA        PTCLDY    64  52  63 W13       30.05R
ENSENADA NW      N/A     61  32  33 W2        30.00R

$$

OFFSHORE ISLANDS

CITY           SKY/WX    TMP DP  RH WIND       PRES   REMARKS
CATALINA ARPT  PTCLDY    68  30  24 NW12      30.08S
SAN NICOLAS IS PTCLDY   N/A N/A N/A W12       30.04S

$$

MARINE AND OFFSHORE BUOY REPORTS

STATION/POSITION SKY/WX   TEMP    WIND        PRES    SWELL
                          AIR SEA DIR/SP/G            HT/PER/DIR
                          (F)     (DEG/KT/KT) (MB)    (FT/S/D)
TANNER BANKS               57 60  340/ 12/ 14 1017.9R  10/320/16
S CLEMENTE BASIN           58 62  300/ 12/ 16 1017.1R   8/290/17
SAN NICOLAS IS.               58                N/A    10/280/15
SO. S. ROSA ISLA           59 60              1016.1F
W. S. BARBARA CH           58 58  330/ 25/ 29 1016.7S  10/290/15
M. S. BARBARA CH           61 61  180/  4/  6 1017.0F
S. MONICA BASIN            56 61  290/  6/ 10 1017.1F   5/290/16
DANA POINT                    62                N/A     3/240/15
OCEANSIDE OFFSHR              62                N/A     3/250/17
TORREY PINES OTR              61                N/A     5/270/15
LA JOLLA 1                 61 61              1017.3R
SAN DIEGO BAY                 62              1017.3R
POINT LOMA SOUTH              62                N/A     7/270/15

$$




USA.gov is the U.S. government's official web portal to all federal, state and local government web resources and services.